Regional Weather Roundup
Issued by NWS

Home | Current Version | Previous Version | Graphics & Text | Print | Product List | Glossary On
Versions: 1 2 3 4 5 6 7 8 9 10 11 12 13 14 15 16 17 18 19 20 21 22 23 24 25 26 27 28 29 30 31 32 33 34 35 36 37 38 39 40 41 42 43 44 45 46 47 48 49 50
000
ASUS43 KDMX 140103
RWRIA

WEATHER ROUNDUP FOR IOWA
NATIONAL WEATHER SERVICE DES MOINES IA
700 PM CST SAT FEB 13 2016

NOTE: "FAIR" INDICATES FEW OR NO CLOUDS BELOW 12,000 FEET WITH NO
SIGNIFICANT WEATHER AND/OR OBSTRUCTIONS TO VISIBILITY.

* - THESE STATIONS ARE NOT NWS STATIONS...THUS NOT UNDER NWS
QUALITY CONTROL.  THEY ALSO DO NOT REPORT WEATHER SUCH
AS PRECIPITATION OR FOG.

IAZ001>003-012>014-020>022-031>034-043>046-140200-
   NORTHWEST IOWA

CITY           SKY/WX    TMP DP  RH WIND       PRES   REMARKS
CARROLL *      LGT SNOW  10   9  92 SE15      30.32F WCI  -6
CHEROKEE *     LGT SNOW  10   7  85 SE8       30.30F WCI  -1
DENISON *      CLOUDY    14   9  79 SE14G20   30.27F WCI  -1
LE MARS *      CLOUDY    12  10  92 SE20      30.26F FOG     WCI  -6
ORANGE CITY *  LGT SNOW   9   7  92 SE8       30.24F WCI  -4
SHELDON *      CLOUDY    10   3  72 SE17      30.24F WCI  -7
SIOUX CITY     CLOUDY    16   7  67 SE20      30.23F WCI  -1
SPENCER        CLOUDY     9   1  70 SE17      30.29F WCI  -9
STORM LAKE *   LGT SNOW   9   5  85 SE16G23   30.28F WCI  -9
$$

IAZ055>058-069>071-079>083-090>094-140200-
   SOUTHWEST IOWA

CITY           SKY/WX    TMP DP  RH WIND       PRES   REMARKS
ATLANTIC *     CLOUDY    18   7  62 SE8       30.31F WCI   7
AUDUBON *      FLURRIES  14   9  79 SE14      30.31F WCI  -1
CLARINDA *     CLOUDY    18   0  45 SE13      30.34F WCI   4
COUNCIL BLFS * CLOUDY    18   5  57 SE15      30.26F WCI   3
CRESTON *      CLOUDY    16   3  57 SE13      30.34R WCI   2
HARLAN  *      CLOUDY    16  10  79 SE12      30.33F WCI   3
LAMONI         CLOUDY    16   6  65 E7        30.34F WCI   6
RED OAK *      CLOUDY    18   0  45 SE13      30.30F WCI   4
SHENANDOAH *   CLOUDY    19   1  45 SE16      30.31F WCI   5
$$

IAZ047>049-059>061-072>074-084-140200-
   CENTRAL IOWA

CITY           SKY/WX    TMP DP  RH WIND       PRES   REMARKS
AMES           CLOUDY    14   3  61 SE12      30.38F WCI   0
ANKENY *       CLOUDY    14   3  62 SE13      30.39F WCI   0
BOONE *        CLOUDY    12   3  67 SE16      30.35F WCI  -4
CHARITON *     FLURRIES  14   3  62 SE10      30.38F WCI   1
DES MOINES     CLOUDY    15   0  51 SE10      30.38F WCI   2
GRINNELL*      CLOUDY    16   3  57 SE12      30.40S WCI   3
KNOXVILLE *    CLOUDY    16   0  48 SE10      30.38F WCI   3
MARSHALLTOWN   CLOUDY    12   2  64 E12       30.39F WCI  -2
NEWTON *       CLOUDY    16   5  62 SE10      30.40S WCI   3
PELLA *        CLOUDY    16   3  57 SE9       30.42F WCI   4
$$

IAZ004>006-015-016-023>025-035-036-140200-
   NORTH CENTRAL IOWA

CITY           SKY/WX    TMP DP  RH WIND       PRES   REMARKS
ALGONA *       CLOUDY    10   1  67 SE13      30.33F WCI  -5
CLARION *      CLOUDY    10   1  67 SE14      30.36S WCI  -5
ESTHERVILLE    CLOUDY     8   1  73 SE20      30.30F WCI -11
FORT DODGE *   CLOUDY    12   1  62 SE8       30.35F WCI   1
MASON CITY     CLOUDY     6  -2  69 SE10      30.39F WCI  -9
FOREST CITY *  CLOUDY     9   0  66 SE10      30.36F WCI  -6
WEBSTER CITY * CLOUDY    12   3  67 SE15      30.34S WCI  -4
IOWA FALLS *   CLOUDY    12   3  67 E14       30.38F WCI  -3
$$

IAZ007>011-017>019-026>030-037>042-050>054-066-140200-
   NORTHEAST IOWA

CITY           SKY/WX    TMP DP  RH WIND       PRES   REMARKS
CEDAR RAPIDS   CLOUDY    15   2  56 E9        30.42F WCI   3
CHARLES CITY * CLOUDY     7  -6  56 SE12      30.41F WCI  -9
CLINTON *      CLOUDY    12   0  58 E6        30.49F WCI   3
DUBUQUE        CLOUDY     9  -3  58 NE6       30.45F WCI  -1
MONTICELLO *   CLEAR     12  -2  52 CALM      30.46F
OELWEIN *      MOCLDY     7  -4  61 SE5       30.44S WCI  -2
WATERLOO       CLOUDY    10  -1  61 E10       30.42F WCI  -4
$$

IAZ064-065-067-068-078-140200-
   EAST CENTRAL IOWA

CITY           SKY/WX    TMP DP  RH WIND       PRES   REMARKS
DAVENPORT      CLOUDY    15  -4  42 E9        30.47F WCI   3
IOWA CITY      CLOUDY    17  -2  43 E7        30.47F WCI   8
MT. PLEASANT * CLOUDY    21   3  45 E12       30.45F WCI   9
MUSCATINE *    MOCLDY    19  -4  35 SE6       30.48F WCI  11
QUAD CITIES    CLOUDY    17  -2  43 E7        30.48F WCI   8
$$

IAZ062-063-075>077-085>089-095>099-140200-
   SOUTHEAST IOWA

CITY           SKY/WX    TMP DP  RH WIND       PRES   REMARKS
BURLINGTON     CLOUDY    18   0  45 SE8       30.45F WCI   8
FAIRFIELD *    CLOUDY    18   0  45 SE12      30.43F WCI   5
FORT MADISON * MOCLDY    18   3  53 E8        30.45F WCI   7
KEOKUK *       CLOUDY    19   7  58 SE6       30.45F WCI  11
OSKALOOSA *    CLOUDY    18   5  57 SE10      30.42F WCI   6
OTTUMWA        CLOUDY    17   4  56 SE7       30.42F WCI   8
WASHINGTON *   CLOUDY    18   1  49 SE12      30.45F WCI   5
$$

ABBREVIATIONS USED IN REMARKS
   TC - TEMPERATURES IN CELSIUS
  WCI - WIND CHILL INDEX
   HX - HEAT INDEX
  VSB - VISIBILITY
$$




USA.gov is the U.S. government's official web portal to all federal, state and local government web resources and services.